GFSGL_prec_sndepth_159.txt.gz
Snowfall_Accumulation
0.0 0.0 0.0 0.0 0.0 0.0 0.0 0.0 0.0 0.0 0.0 0.0 0.0 0.0 0.0 0.0 0.0 0.0 0.0 0.0 0.0 0.0 0.0 0.0 0.0 0.0 0.0 0.0 0.0 0.0 0.0 0.0 0.0 0.0 0.0 0.0 0.0 0.0 0.0 0.0 0.0 0.0 0.0
0.0 0.0 0.0 0.0 0.0 0.0 0.0 0.0 0.0 0.0 0.0 0.0 0.0 0.0 0.0 0.0 0.0 0.0 0.0 0.0 0.0 0.0 0.0 0.0 0.0 0.0 0.0 0.0 0.0 0.0 0.0 0.0 0.0 0.0 0.0 0.3 0.1 0.0 0.0 0.0 0.0 0.0 0.0
0.0 0.0 0.0 0.0 0.0 0.0 0.0 0.0 0.0 0.0 0.0 0.0 0.0 0.0 0.0 0.0 0.0 0.0 0.0 0.0 0.0 0.0 0.0 0.0 0.0 0.0 0.0 0.0 0.0 0.0 0.0 0.0 0.0 0.1 0.2 0.2 0.2 0.1 0.1 0.1 0.0 0.0 0.0
0.0 0.0 0.0 0.0 0.0 0.0 0.0 0.0 0.0 0.0 0.0 0.0 0.0 0.0 0.0 0.0 0.0 0.0 0.0 0.0 0.0 0.0 0.0 0.0 0.0 0.0 0.0 0.0 0.0 0.0 0.0 0.1 0.1 0.2 0.2 0.2 0.3 0.4 0.4 0.5 0.8 0.5 0.5
0.0 0.0 0.0 0.0 0.0 0.0 0.0 0.0 0.0 0.0 0.0 0.0 0.0 0.0 0.0 0.0 0.0 0.0 0.0 0.0 0.0 0.0 0.0 0.0 0.0 0.0 nan nan 0.1 0.0 0.0 0.1 0.3 0.4 0.4 0.4 0.4 0.6 0.8 0.7 1.3 0.9 0.7
0.0 0.0 0.0 0.0 0.0 0.0 0.0 0.0 0.0 0.0 0.0 0.0 0.0 0.0 0.0 0.0 nan nan 0.0 0.0 0.0 0.0 0.0 0.0 0.0 0.0 0.0 nan nan nan nan 0.0 0.1 0.8 0.6 0.4 0.1 0.7 1.1 1.6 2.0 2.9 3.1
0.0 0.0 0.1 0.1 0.1 0.0 0.0 0.0 0.0 0.1 0.1 0.0 0.0 0.0 0.0 0.0 nan nan nan 0.0 0.0 0.0 0.0 0.0 0.0 0.0 0.1 0.0 nan nan nan nan nan 0.0 0.1 0.3 0.6 0.3 0.6 1.6 1.3 2.3 1.7
0.1 0.1 0.2 0.2 0.4 0.6 0.6 0.5 0.3 0.1 0.1 0.1 0.0 0.0 0.0 0.0 nan nan nan 0.0 0.0 0.0 0.0 0.0 0.0 0.1 0.0 0.1 0.1 0.1 0.1 0.1 0.1 0.0 0.1 0.1 0.1 0.1 0.1 0.2 0.6 1.1 2.0
0.5 0.7 0.7 0.6 0.6 0.5 0.5 0.3 0.2 0.1 0.1 0.2 0.1 0.3 0.3 0.2 nan nan 0.0 0.1 0.1 0.1 0.1 0.0 0.1 0.1 nan nan 0.2 0.9 1.4 0.8 nan nan nan nan nan nan nan 2.1 7.7 9.7 6.1
0.7 0.7 0.6 0.5 0.7 0.5 0.3 0.4 0.5 0.4 0.5 1.3 0.5 0.5 0.1 0.5 nan nan nan 1.1 0.7 1.1 0.2 0.1 0.6 0.1 nan nan 0.6 1.5 3.7 1.5 1.2 2.0 1.1 0.3 nan nan nan 0.2 2.0 8.5 6.4
1.8 1.6 1.4 0.8 0.9 0.4 0.5 0.5 1.0 1.4 1.0 1.5 1.8 1.2 1.0 0.4 0.2 nan nan 0.6 1.6 2.8 2.7 2.2 1.3 nan nan nan nan 1.9 2.7 1.3 2.9 2.7 2.6 2.7 2.0 1.7 2.0 1.3 0.7 2.0 5.9
1.8 1.6 1.6 1.6 1.1 0.8 2.1 1.7 2.5 2.2 2.5 2.8 2.8 2.6 2.2 0.9 nan nan nan nan nan 4.5 2.8 2.1 1.7 nan nan nan 1.3 nan nan 1.7 4.8 5.8 6.7 6.3 4.7 4.0 2.7 1.9 0.7 0.8 0.8
3.5 4.3 3.8 3.0 2.6 2.2 3.1 2.8 4.3 3.1 4.5 2.9 3.9 3.7 2.9 2.6 2.0 nan nan nan nan 3.1 2.2 2.1 nan nan nan nan nan nan 1.6 4.7 6.0 10.2 7.9 5.0 3.6 2.9 1.7 2.5 1.6 1.9 1.6
6.0 3.4 2.8 3.5 2.6 3.0 3.4 3.8 5.6 5.2 4.5 4.7 5.7 5.9 4.2 4.3 3.4 2.8 3.6 2.2 2.5 3.8 nan 3.0 nan 3.3 nan nan 3.3 3.7 5.5 6.3 8.0 9.4 8.4 5.0 3.5 4.9 6.5 4.9 7.6 7.1 11.0
5.3 3.7 3.7 4.4 4.9 3.9 3.4 4.6 5.0 2.9 5.9 10.0 10.5 7.2 10.9 11.5 8.4 3.7 7.4 9.5 7.5 7.2 6.2 10.4 9.5 7.1 7.5 7.1 8.6 7.7 6.7 7.6 9.2 8.9 10.1 9.4 9.2 9.2 9.4 7.6 8.6 11.0 14.3
3.8 5.2 4.3 4.6 4.2 4.0 5.0 5.1 nan nan nan nan nan 7.6 8.9 nan nan nan nan nan nan nan 18.0 20.8 13.7 12.3 11.0 11.1 12.5 11.8 10.6 9.1 10.4 11.5 11.9 11.4 12.4 11.4 12.1 12.4 11.8 14.1 16.2
6.5 5.2 6.3 5.2 6.2 7.2 7.9 9.3 10.2 7.8 nan nan nan nan nan nan nan nan nan nan nan nan 28.9 19.4 19.0 14.9 14.6 12.8 14.0 13.3 12.9 11.8 11.1 13.2 13.1 14.2 14.9 15.5 15.6 15.1 13.2 12.6 16.1
7.9 2.8 8.9 9.0 8.9 9.8 10.5 11.1 11.6 13.0 14.3 12.8 nan nan nan nan nan nan nan nan 26.5 nan 24.5 27.3 24.1 20.6 18.0 17.2 15.5 15.6 15.1 14.0 13.5 14.9 15.1 18.6 19.6 21.1 19.3 18.4 15.7 18.4 17.2
11.0 9.9 10.9 11.6 11.8 12.2 12.7 12.0 12.6 13.0 13.9 16.0 15.3 15.3 8.5 nan nan nan nan 20.3 27.4 25.4 25.6 26.1 23.8 23.1 21.0 21.4 20.1 21.0 18.8 19.1 19.0 22.3 22.0 23.4 21.7 22.2 21.1 16.5 14.3 9.2 10.3
14.2 5.8 11.0 16.4 15.4 14.3 12.2 14.2 13.6 13.9 14.8 16.3 16.4 15.9 21.0 18.3 24.6 26.0 22.9 28.1 27.8 26.1 24.3 25.8 26.2 28.0 27.8 25.8 25.4 24.0 23.8 24.1 22.5 23.6 23.6 22.2 20.7 21.5 16.5 20.3 18.3 16.6 17.2
19.1 17.7 4.2 17.1 19.5 19.8 20.1 17.9 15.3 17.8 16.4 17.9 15.8 15.4 nan 21.2 22.0 23.7 26.3 25.3 27.6 29.4 26.1 27.4 28.4 33.0 32.9 34.9 30.7 29.4 28.1 20.2 23.3 25.2 26.2 25.5 24.8 28.6 19.6 14.5 18.3 19.3 19.3
19.1 19.8 20.0 21.9 17.8 18.2 19.7 16.2 17.2 17.2 17.0 16.1 15.3 15.7 nan 17.6 19.9 20.7 20.9 25.1 27.6 27.4 29.6 33.0 32.3 34.2 31.8 30.2 28.2 26.6 23.4 26.2 27.5 26.8 23.4 24.0 26.8 24.1 23.3 17.8 18.2 16.6 20.2
17.9 16.9 18.2 19.0 18.9 8.4 22.1 23.9 21.3 20.2 18.3 18.0 16.2 15.6 17.4 21.1 18.5 18.1 24.4 26.9 23.0 22.1 24.1 25.2 23.8 23.4 21.8 24.2 22.0 21.3 22.9 25.1 25.6 30.9 24.0 24.7 24.3 26.6 24.2 21.9 19.9 21.4 20.2
19.3 19.6 18.9 20.4 18.4 16.6 18.3 18.9 17.0 6.9 17.2 17.9 25.5 21.6 14.3 17.6 23.5 19.3 19.5 22.1 18.6 27.9 21.4 22.4 19.4 19.1 20.2 27.5 32.6 32.0 33.9 35.2 34.6 32.4 29.8 22.7 22.7 18.9 20.3 22.0 18.0 16.9 15.2
19.2 17.0 16.7 15.7 21.1 17.5 16.7 19.1 13.8 17.8 20.5 16.8 19.8 15.3 16.1 15.6 16.9 22.0 20.7 17.4 19.2 17.8 15.6 15.6 15.8 16.0 16.4 16.9 22.3 27.3 26.4 4.5 18.5 4.9 27.0 20.5 23.5 23.9 23.3 19.9 18.3 16.1 14.1
14.2 14.8 15.4 15.7 15.7 16.8 17.4 17.1 17.5 14.6 17.9 18.9 18.1 18.3 16.2 16.2 15.9 18.4 17.3 17.4 14.5 14.9 15.2 16.0 15.6 13.7 13.1 14.8 15.8 6.8 4.2 3.7 22.6 4.4 23.9 20.0 22.6 21.6 21.6 21.7 20.2 18.7 15.3

GFSGL_prec_sndepth_162.txt.gz
Snowfall_Accumulation
0.0 0.0 0.0 0.0 0.0 0.0 0.0 0.0 0.0 0.0 0.0 0.0 0.0 0.0 0.0 0.0 0.0 0.0 0.0 0.0 0.0 0.0 0.0 0.0 0.0 0.0 0.0 0.0 0.0 0.0 0.0 0.0 0.0 0.0 0.0 0.0 0.0 0.0 0.0 0.0 0.0 0.0 0.0
0.0 0.0 0.0 0.0 0.0 0.0 0.0 0.0 0.0 0.0 0.0 0.0 0.0 0.0 0.0 0.0 0.0 0.0 0.0 0.0 0.0 0.0 0.0 0.0 0.0 0.0 0.0 0.0 0.0 0.0 0.0 0.0 0.0 0.0 0.0 0.3 0.1 0.0 0.0 0.0 0.0 0.0 0.0
0.0 0.0 0.0 0.0 0.0 0.0 0.0 0.0 0.0 0.0 0.0 0.0 0.0 0.0 0.0 0.0 0.0 0.0 0.0 0.0 0.0 0.0 0.0 0.0 0.0 0.0 0.0 0.0 0.0 0.0 0.0 0.0 0.0 0.1 0.2 0.2 0.2 0.1 0.1 0.1 0.0 0.0 0.0
0.0 0.0 0.0 0.0 0.0 0.0 0.0 0.0 0.0 0.0 0.0 0.0 0.0 0.0 0.0 0.0 0.0 0.0 0.0 0.0 0.0 0.0 0.0 0.0 0.0 0.0 0.0 0.0 0.0 0.0 0.0 0.1 0.1 0.2 0.2 0.2 0.3 0.4 0.4 0.5 0.8 0.5 0.5
0.0 0.0 0.0 0.0 0.0 0.0 0.0 0.0 0.0 0.0 0.0 0.0 0.0 0.0 0.0 0.0 0.0 0.0 0.0 0.0 0.0 0.0 0.0 0.0 0.0 0.0 nan nan 0.1 0.0 0.0 0.1 0.3 0.4 0.4 0.4 0.4 0.6 0.8 0.7 1.3 0.9 0.7
0.0 0.0 0.0 0.0 0.0 0.0 0.0 0.0 0.0 0.0 0.0 0.0 0.0 0.0 0.0 0.0 nan nan 0.0 0.0 0.0 0.0 0.0 0.0 0.0 0.0 0.0 nan nan nan nan 0.0 0.1 0.9 0.6 0.4 0.1 0.7 1.1 1.6 2.0 2.9 3.2
0.0 0.0 0.1 0.1 0.1 0.0 0.0 0.0 0.0 0.1 0.1 0.1 0.1 0.1 0.0 0.0 nan nan nan 0.0 0.0 0.0 0.0 0.0 0.0 0.0 0.1 0.0 nan nan nan nan nan 0.1 0.2 0.3 0.7 0.4 0.7 1.6 1.3 2.3 1.7
0.1 0.1 0.2 0.2 0.4 0.6 0.6 0.5 0.4 0.2 0.2 0.2 0.1 0.0 0.0 0.0 nan nan nan 0.0 0.0 0.0 0.0 0.0 0.0 0.1 0.0 0.1 0.1 0.1 0.1 0.1 0.1 0.0 0.1 0.1 0.1 0.1 0.1 0.3 0.6 1.1 2.0
0.5 0.7 0.7 0.6 0.6 0.5 0.6 0.5 0.4 0.3 0.2 0.2 0.1 0.3 0.3 0.2 nan nan 0.0 0.1 0.1 0.1 0.1 0.0 0.0 0.1 nan nan 0.2 0.9 1.4 0.8 nan nan nan nan nan nan nan 2.1 7.7 9.8 6.1
0.7 0.7 0.6 0.6 0.9 0.9 0.6 0.7 0.6 0.5 0.6 1.3 0.5 0.5 0.1 0.5 nan nan nan 1.0 0.7 1.1 0.2 0.1 0.6 0.1 nan nan 0.6 1.5 3.7 1.5 1.2 2.0 1.0 0.2 nan nan nan 0.2 2.1 8.7 6.5
1.8 1.6 1.5 1.4 1.5 0.9 0.7 0.6 1.0 1.4 1.0 1.5 1.8 1.1 1.0 0.4 0.2 nan nan 0.5 1.6 2.8 2.7 2.1 1.3 nan nan nan nan 1.9 2.7 1.3 2.9 2.7 2.6 2.7 2.0 1.7 1.9 1.3 0.7 2.0 6.1
2.1 2.3 2.4 2.3 1.8 1.3 2.3 1.9 2.7 2.2 2.5 2.8 2.8 2.6 2.2 0.9 nan nan nan nan nan 4.5 2.8 2.1 1.7 nan nan nan 1.3 nan nan 1.7 4.7 5.8 6.7 6.3 4.7 4.0 2.6 1.9 0.7 0.8 0.8
4.3 5.2 4.7 3.8 2.9 2.4 3.4 3.0 4.3 3.1 4.5 2.9 3.9 3.7 2.9 2.5 2.0 nan nan nan nan 3.1 2.2 2.1 nan nan nan nan nan nan 1.6 4.7 6.0 10.2 7.9 5.0 3.6 2.9 1.7 2.4 1.5 1.8 1.6
6.7 4.2 3.4 3.9 3.0 3.3 3.5 3.8 5.6 5.2 4.4 4.7 5.7 5.9 4.2 4.3 3.4 2.8 3.6 2.2 2.5 3.7 nan 3.0 nan 3.3 nan nan 3.3 3.7 5.5 6.3 8.0 9.4 8.4 5.0 3.5 4.9 6.5 4.9 7.6 7.0 10.9
5.8 4.2 4.3 4.8 5.0 4.0 3.4 4.5 5.0 2.9 5.9 10.0 10.5 7.2 10.9 11.5 8.4 3.7 7.4 9.5 7.5 7.2 6.2 10.4 9.5 7.1 7.5 7.1 8.6 7.7 6.7 7.6 9.1 8.9 10.1 9.4 9.2 9.2 9.4 7.6 8.6 11.0 14.3
4.2 5.5 4.4 4.6 4.2 3.9 5.0 5.1 nan nan nan nan nan 7.6 8.9 nan nan nan nan nan nan nan 18.0 20.8 13.7 12.3 10.9 11.1 12.5 11.8 10.6 9.1 10.3 11.5 11.9 11.4 12.4 11.4 12.1 12.4 11.8 14.1 16.2
6.5 5.2 6.2 5.1 6.2 7.2 7.9 9.3 10.2 7.8 nan nan nan nan nan nan nan nan nan nan nan nan 28.9 19.4 18.9 14.9 14.6 12.8 14.0 13.3 12.9 11.8 11.1 13.2 13.0 14.2 14.9 15.5 15.6 15.1 13.2 12.6 16.1
7.9 2.8 8.9 8.9 8.9 9.8 10.5 11.1 11.6 13.0 14.3 12.8 nan nan nan nan nan nan nan nan 26.4 nan 24.4 27.2 24.1 20.6 18.0 17.2 15.4 15.6 15.1 14.0 13.5 14.8 15.0 18.6 19.6 21.1 19.2 18.4 15.7 18.4 17.2
11.0 9.9 10.9 11.5 11.8 12.2 12.7 12.0 12.6 13.0 13.9 16.0 15.2 15.3 8.5 nan nan nan nan 20.2 27.4 25.3 25.5 26.1 23.8 23.1 20.9 21.3 20.1 20.9 18.8 19.1 18.9 22.3 21.9 23.4 21.7 22.1 21.0 16.5 14.3 9.2 10.3
14.1 5.8 11.0 16.3 15.4 14.3 12.1 14.2 13.6 13.9 14.8 16.3 16.4 15.8 20.9 18.2 24.6 25.9 22.9 28.0 27.7 26.0 24.2 25.7 26.2 28.0 27.7 25.8 25.3 23.9 23.8 24.0 22.5 23.5 23.6 22.2 20.7 21.5 16.5 20.3 18.3 16.6 17.2
19.1 17.6 4.2 17.1 19.5 19.8 20.1 17.8 15.3 17.8 16.4 17.8 15.8 15.4 nan 21.2 22.0 23.6 26.3 25.2 27.5 29.3 26.1 27.4 28.4 32.9 32.8 34.8 30.6 29.4 28.0 20.1 23.2 25.2 26.1 25.5 24.7 28.5 19.5 14.5 18.3 19.3 19.3
19.1 19.8 19.9 21.9 17.8 18.1 19.7 16.1 17.2 17.2 17.0 16.1 15.2 15.7 nan 17.6 19.9 20.6 20.9 25.1 27.5 27.4 29.6 33.0 32.2 34.1 31.7 30.2 28.2 26.5 23.3 26.1 27.4 26.7 23.4 24.0 26.7 24.0 23.3 17.8 18.1 16.6 20.1
17.9 16.9 18.1 19.0 18.8 8.4 22.1 23.9 21.3 20.2 18.3 17.9 16.2 15.6 17.3 21.1 18.5 18.1 24.3 26.8 22.9 22.0 24.0 25.2 23.8 23.3 21.8 24.2 21.9 21.3 22.8 25.0 25.5 30.9 23.9 24.6 24.3 26.6 24.2 21.9 19.9 21.4 20.2
19.3 19.6 18.9 20.4 18.3 16.6 18.3 18.9 17.0 6.9 17.1 17.9 25.5 21.6 14.3 17.6 23.4 19.2 19.4 22.1 18.6 27.8 21.4 22.3 19.4 19.1 20.2 27.4 32.5 32.0 33.9 35.1 34.5 32.3 29.8 22.7 22.7 18.9 20.3 22.0 18.0 16.9 15.3
19.2 17.0 16.7 15.7 21.0 17.5 16.7 19.1 13.8 17.8 20.4 16.7 19.8 15.3 16.1 15.6 16.9 22.0 20.7 17.3 19.2 17.8 15.5 15.6 15.8 16.0 16.4 16.9 22.3 27.2 26.4 4.5 18.4 4.9 27.0 20.5 23.5 23.9 23.3 19.9 18.3 16.1 14.1
14.2 14.8 15.3 15.7 15.6 16.8 17.4 17.1 17.5 14.6 17.9 18.8 18.1 18.3 16.2 16.1 15.9 18.3 17.3 17.4 14.5 14.9 15.1 16.0 15.6 13.7 13.1 14.8 15.8 6.8 4.2 3.7 22.6 4.4 24.0 20.1 22.5 21.6 21.5 21.6 20.2 18.7 15.3

GFSGL_prec_sndepth_165.txt.gz
Snowfall_Accumulation
0.0 0.0 0.0 0.0 0.0 0.0 0.0 0.0 0.0 0.0 0.0 0.0 0.0 0.0 0.0 0.0 0.0 0.0 0.0 0.0 0.0 0.0 0.0 0.0 0.0 0.0 0.0 0.0 0.0 0.0 0.0 0.0 0.0 0.0 0.0 0.0 0.0 0.0 0.0 0.0 0.0 0.0 0.0
0.0 0.0 0.0 0.0 0.0 0.0 0.0 0.0 0.0 0.0 0.0 0.0 0.0 0.0 0.0 0.0 0.0 0.0 0.0 0.0 0.0 0.0 0.0 0.0 0.0 0.0 0.0 0.0 0.0 0.0 0.0 0.0 0.0 0.0 0.0 0.3 0.1 0.0 0.0 0.0 0.0 0.0 0.0
0.0 0.0 0.0 0.0 0.0 0.0 0.0 0.0 0.0 0.0 0.0 0.0 0.0 0.0 0.0 0.0 0.0 0.0 0.0 0.0 0.0 0.0 0.0 0.0 0.0 0.0 0.0 0.0 0.0 0.0 0.0 0.0 0.0 0.1 0.2 0.2 0.2 0.1 0.1 0.1 0.0 0.0 0.0
0.0 0.0 0.0 0.0 0.0 0.0 0.0 0.0 0.0 0.0 0.0 0.0 0.0 0.0 0.0 0.0 0.0 0.0 0.0 0.0 0.0 0.0 0.0 0.0 0.0 0.0 0.0 0.0 0.0 0.0 0.0 0.1 0.1 0.2 0.2 0.2 0.3 0.4 0.4 0.5 0.8 0.5 0.5
0.0 0.0 0.0 0.0 0.0 0.0 0.0 0.0 0.0 0.0 0.0 0.0 0.0 0.0 0.0 0.0 0.0 0.0 0.0 0.0 0.0 0.0 0.0 0.0 0.0 0.0 nan nan 0.1 0.0 0.0 0.1 0.3 0.4 0.4 0.4 0.4 0.6 0.8 0.7 1.3 0.9 0.7
0.0 0.0 0.0 0.0 0.0 0.0 0.0 0.0 0.0 0.0 0.0 0.0 0.0 0.0 0.0 0.0 nan nan 0.0 0.0 0.0 0.0 0.0 0.0 0.0 0.0 0.0 nan nan nan nan 0.0 0.1 0.9 0.6 0.4 0.1 0.7 1.1 1.6 2.0 3.0 3.4
0.0 0.0 0.1 0.1 0.1 0.0 0.0 0.0 0.0 0.0 0.1 0.1 0.2 0.1 0.1 0.1 nan nan nan 0.0 0.0 0.0 0.0 0.0 0.0 0.0 0.1 0.0 nan nan nan nan nan 0.1 0.2 0.3 0.7 0.4 0.8 1.6 1.3 2.4 1.7
0.1 0.1 0.2 0.2 0.4 0.6 0.6 0.5 0.4 0.2 0.2 0.2 0.1 0.1 0.0 0.0 nan nan nan 0.0 0.0 0.0 0.0 0.0 0.0 0.1 0.0 0.1 0.1 0.1 0.1 0.1 0.1 0.0 0.1 0.1 0.1 0.1 0.1 0.3 0.7 1.1 1.9
0.5 0.7 0.7 0.6 0.6 0.5 0.6 0.5 0.6 0.6 0.4 0.2 0.1 0.3 0.3 0.2 nan nan 0.0 0.1 0.1 0.1 0.1 0.0 0.0 0.1 nan nan 0.2 0.9 1.4 0.8 nan nan nan nan nan nan nan 2.1 7.7 9.8 6.1
0.7 0.7 0.6 0.6 0.9 0.9 0.8 1.0 1.1 0.8 0.8 1.5 0.5 0.6 0.2 0.5 nan nan nan 1.0 0.7 1.1 0.2 0.1 0.6 0.1 nan nan 0.5 1.5 3.7 1.5 1.2 2.0 1.0 0.2 nan nan nan 0.2 2.1 8.7 6.5
1.8 1.6 1.5 1.4 1.6 1.1 1.1 1.0 1.4 1.5 1.1 1.6 1.9 1.2 1.1 0.4 0.2 nan nan 0.5 1.6 2.8 2.7 2.1 1.3 nan nan nan nan 1.8 2.7 1.2 2.9 2.7 2.6 2.6 2.0 1.7 1.9 1.3 0.7 2.0 6.0
2.1 2.3 2.5 2.5 2.0 1.7 2.8 2.2 2.9 2.5 2.9 2.9 2.8 2.6 2.2 0.9 nan nan nan nan nan 4.5 2.7 2.1 1.6 nan nan nan 1.3 nan nan 1.7 4.7 5.8 6.7 6.3 4.7 3.9 2.6 1.9 0.7 0.7 0.8
4.3 5.4 5.0 4.1 3.3 2.8 3.8 3.2 4.5 3.2 4.6 3.0 3.9 3.7 2.9 2.5 2.0 nan nan nan nan 3.1 2.1 2.1 nan nan nan nan nan nan 1.6 4.7 6.0 10.2 7.9 5.0 3.6 2.9 1.6 2.4 1.5 1.8 1.5
6.7 4.3 3.5 4.1 3.2 3.5 3.7 3.9 5.6 5.2 4.4 4.7 5.7 5.9 4.2 4.3 3.4 2.8 3.6 2.2 2.5 3.7 nan 3.0 nan 3.2 nan nan 3.3 3.7 5.5 6.3 8.0 9.4 8.4 5.0 3.5 4.9 6.5 4.9 7.6 7.0 10.9
5.9 4.3 4.5 4.9 5.1 4.1 3.4 4.5 4.9 2.9 5.9 10.0 10.5 7.2 10.9 11.5 8.4 3.7 7.4 9.5 7.5 7.2 6.2 10.4 9.5 7.1 7.5 7.1 8.6 7.7 6.7 7.6 9.1 8.9 10.1 9.4 9.2 9.2 9.3 7.6 8.6 11.0 14.3
4.4 5.7 4.5 4.6 4.2 3.9 4.9 5.1 nan nan nan nan nan 7.6 8.9 nan nan nan nan nan nan nan 17.9 20.8 13.7 12.3 10.9 11.1 12.5 11.8 10.6 9.1 10.3 11.5 11.9 11.3 12.4 11.4 12.1 12.4 11.7 14.1 16.1
6.6 5.2 6.2 5.1 6.1 7.2 7.9 9.3 10.2 7.8 nan nan nan nan nan nan nan nan nan nan nan nan 28.8 19.4 18.9 14.9 14.6 12.8 13.9 13.3 12.8 11.8 11.1 13.2 13.0 14.2 14.9 15.5 15.6 15.1 13.2 12.6 16.1
7.9 2.8 8.9 8.9 8.9 9.8 10.5 11.1 11.6 12.9 14.3 12.8 nan nan nan nan nan nan nan nan 26.4 nan 24.4 27.2 24.0 20.5 18.0 17.1 15.4 15.6 15.1 14.0 13.5 14.8 15.0 18.5 19.5 21.1 19.2 18.4 15.7 18.4 17.2
11.0 9.9 10.9 11.5 11.7 12.2 12.7 12.0 12.6 12.9 13.8 16.0 15.2 15.3 8.5 nan nan nan nan 20.2 27.3 25.3 25.5 26.1 23.8 23.0 20.9 21.3 20.0 20.9 18.7 19.1 18.9 22.2 21.9 23.3 21.6 22.1 21.0 16.5 14.3 9.2 10.3
14.1 5.8 11.0 16.3 15.4 14.3 12.1 14.2 13.5 13.9 14.8 16.3 16.4 15.8 20.9 18.2 24.5 25.9 22.8 28.0 27.7 26.0 24.2 25.7 26.1 27.9 27.7 25.7 25.3 23.9 23.7 24.0 22.4 23.5 23.5 22.2 20.7 21.4 16.5 20.3 18.2 16.6 17.2
19.0 17.6 4.2 17.1 19.4 19.8 20.1 17.8 15.3 17.7 16.3 17.8 15.8 15.4 nan 21.1 21.9 23.6 26.2 25.2 27.4 29.3 26.0 27.3 28.3 32.8 32.8 34.7 30.5 29.3 28.0 20.1 23.2 25.1 26.1 25.4 24.7 28.5 19.5 14.5 18.3 19.3 19.3
19.0 19.7 19.9 21.8 17.7 18.1 19.7 16.1 17.1 17.2 16.9 16.0 15.2 15.7 nan 17.6 19.9 20.6 20.8 25.0 27.5 27.3 29.5 32.9 32.1 34.0 31.6 30.1 28.1 26.4 23.3 26.0 27.3 26.7 23.3 23.9 26.6 24.0 23.3 17.8 18.1 16.6 20.1
17.8 16.8 18.1 19.0 18.8 8.4 22.0 23.8 21.2 20.1 18.2 17.9 16.2 15.5 17.3 21.0 18.4 18.1 24.3 26.8 22.9 22.0 24.0 25.1 23.7 23.3 21.7 24.1 21.9 21.2 22.8 25.0 25.5 30.8 23.9 24.6 24.2 26.5 24.1 21.9 19.9 21.4 20.2
19.3 19.5 18.9 20.3 18.3 16.6 18.2 18.9 16.9 6.9 17.1 17.8 25.4 21.5 14.3 17.6 23.3 19.2 19.4 22.1 18.5 27.7 21.3 22.3 19.4 19.1 20.2 27.4 32.4 31.9 33.8 35.0 34.4 32.2 29.7 22.7 22.6 18.8 20.3 22.0 18.0 16.9 15.3
19.1 16.9 16.7 15.7 21.0 17.5 16.7 19.1 13.7 17.8 20.4 16.7 19.7 15.3 16.1 15.6 16.9 21.9 20.6 17.3 19.1 17.7 15.5 15.6 15.7 16.0 16.4 16.8 22.3 27.2 26.3 4.5 18.4 4.9 26.9 20.5 23.5 23.8 23.3 19.9 18.3 16.1 14.1
14.2 14.8 15.3 15.7 15.6 16.8 17.3 17.0 17.4 14.6 17.8 18.8 18.0 18.2 16.1 16.1 15.8 18.3 17.2 17.3 14.5 14.9 15.1 16.0 15.5 13.7 13.0 14.8 15.8 6.8 4.2 3.7 22.5 4.4 24.0 20.1 22.5 21.5 21.5 21.6 20.2 18.7 15.3

GFSGL_prec_sndepth_168.txt.gz
Snowfall_Accumulation
0.0 0.0 0.0 0.0 0.0 0.0 0.0 0.0 0.0 0.0 0.0 0.0 0.0 0.0 0.0 0.0 0.0 0.0 0.0 0.0 0.0 0.0 0.0 0.0 0.0 0.0 0.0 0.0 0.0 0.0 0.0 0.0 0.0 0.0 0.0 0.0 0.0 0.0 0.0 0.0 0.0 0.0 0.0
0.0 0.0 0.0 0.0 0.0 0.0 0.0 0.0 0.0 0.0 0.0 0.0 0.0 0.0 0.0 0.0 0.0 0.0 0.0 0.0 0.0 0.0 0.0 0.0 0.0 0.0 0.0 0.0 0.0 0.0 0.0 0.0 0.0 0.0 0.0 0.3 0.1 0.0 0.0 0.0 0.0 0.0 0.0
0.0 0.0 0.0 0.0 0.0 0.0 0.0 0.0 0.0 0.0 0.0 0.0 0.0 0.0 0.0 0.0 0.0 0.0 0.0 0.0 0.0 0.0 0.0 0.0 0.0 0.0 0.0 0.0 0.0 0.0 0.0 0.0 0.0 0.1 0.2 0.2 0.2 0.1 0.1 0.1 0.0 0.0 0.0
0.0 0.0 0.0 0.0 0.0 0.0 0.0 0.0 0.0 0.0 0.0 0.0 0.0 0.0 0.0 0.0 0.0 0.0 0.0 0.0 0.0 0.0 0.0 0.0 0.0 0.0 0.0 0.0 0.0 0.0 0.0 0.1 0.1 0.2 0.2 0.2 0.3 0.4 0.3 0.5 0.8 0.5 0.5
0.0 0.0 0.0 0.0 0.0 0.0 0.0 0.0 0.0 0.0 0.0 0.0 0.0 0.0 0.0 0.0 0.0 0.0 0.0 0.0 0.0 0.0 0.0 0.0 0.0 0.0 nan nan 0.1 0.0 0.0 0.1 0.3 0.4 0.4 0.4 0.4 0.6 0.8 0.7 1.3 0.9 0.6
0.0 0.0 0.0 0.0 0.0 0.0 0.0 0.0 0.0 0.0 0.0 0.0 0.0 0.0 0.0 0.0 nan nan 0.0 0.0 0.0 0.0 0.0 0.0 0.0 0.0 0.0 nan nan nan nan 0.0 0.1 0.9 0.6 0.4 0.1 0.7 1.1 1.6 2.0 2.9 3.3
0.0 0.0 0.1 0.1 0.1 0.0 0.0 0.0 0.0 0.0 0.1 0.1 0.2 0.1 0.1 0.1 nan nan nan 0.0 0.0 0.0 0.0 0.0 0.0 0.0 0.1 0.0 nan nan nan nan nan 0.1 0.1 0.3 0.7 0.4 0.7 1.6 1.3 2.4 1.7
0.1 0.1 0.2 0.2 0.4 0.6 0.6 0.5 0.4 0.2 0.2 0.2 0.1 0.1 0.0 0.0 nan nan nan 0.0 0.0 0.0 0.0 0.0 0.0 0.1 0.0 0.1 0.1 0.1 0.1 0.1 0.1 0.0 0.1 0.1 0.1 0.1 0.1 0.3 0.6 1.1 1.9
0.5 0.7 0.7 0.6 0.6 0.5 0.6 0.5 0.6 0.6 0.4 0.2 0.1 0.3 0.3 0.2 nan nan 0.0 0.1 0.1 0.1 0.0 0.0 0.0 0.1 nan nan 0.2 0.9 1.4 0.8 nan nan nan nan nan nan nan 2.1 7.7 9.8 6.1
0.7 0.7 0.6 0.6 0.9 0.9 0.8 1.0 1.1 0.8 0.9 1.6 0.6 0.6 0.2 0.5 nan nan nan 1.0 0.7 1.1 0.2 0.1 0.6 0.1 nan nan 0.5 1.5 3.7 1.5 1.2 2.0 1.0 0.2 nan nan nan 0.2 2.0 8.7 6.5
1.8 1.6 1.5 1.4 1.6 1.1 1.1 1.1 1.5 1.7 1.2 1.7 1.9 1.2 1.1 0.4 0.2 nan nan 0.5 1.6 2.8 2.7 2.1 1.2 nan nan nan nan 1.8 2.7 1.2 2.8 2.7 2.6 2.6 2.0 1.6 1.9 1.3 0.7 1.9 6.0
2.1 2.3 2.5 2.5 2.0 1.7 2.8 2.3 3.1 2.7 3.0 3.0 2.8 2.6 2.2 0.8 nan nan nan nan nan 4.5 2.7 2.1 1.6 nan nan nan 1.3 nan nan 1.7 4.7 5.8 6.7 6.3 4.7 3.9 2.6 1.9 0.7 0.7 0.8
4.3 5.4 5.0 4.1 3.3 2.9 3.8 3.3 4.7 3.4 4.7 3.0 3.9 3.7 2.9 2.5 2.0 nan nan nan nan 3.1 2.1 2.1 nan nan nan nan nan nan 1.6 4.7 6.0 10.2 7.9 5.0 3.6 2.8 1.6 2.4 1.5 1.8 1.5
6.7 4.4 3.6 4.1 3.3 3.6 3.8 3.9 5.7 5.3 4.5 4.7 5.7 5.9 4.2 4.3 3.4 2.8 3.6 2.2 2.5 3.7 nan 3.0 nan 3.2 nan nan 3.3 3.7 5.5 6.3 8.0 9.4 8.3 5.0 3.5 4.8 6.5 4.9 7.6 7.0 10.9
5.9 4.3 4.6 5.1 5.2 4.2 3.4 4.6 5.0 2.9 5.9 10.0 10.5 7.2 10.9 11.5 8.4 3.7 7.4 9.5 7.5 7.2 6.2 10.4 9.5 7.1 7.5 7.1 8.6 7.7 6.7 7.6 9.1 8.9 10.1 9.4 9.2 9.2 9.3 7.6 8.5 11.0 14.3
4.5 5.9 4.7 4.8 4.3 4.0 5.0 5.1 nan nan nan nan nan 7.6 8.9 nan nan nan nan nan nan nan 17.9 20.8 13.7 12.3 10.9 11.1 12.5 11.8 10.6 9.1 10.3 11.5 11.9 11.3 12.4 11.4 12.1 12.4 11.7 14.1 16.1
7.0 5.6 6.5 5.3 6.2 7.2 7.9 9.3 10.2 7.8 nan nan nan nan nan nan nan nan nan nan nan nan 28.8 19.3 18.9 14.8 14.6 12.8 13.9 13.2 12.8 11.8 11.0 13.2 13.0 14.1 14.9 15.4 15.6 15.1 13.2 12.6 16.1
8.3 2.9 9.1 9.0 8.9 9.8 10.4 11.1 11.6 12.9 14.2 12.7 nan nan nan nan nan nan nan nan 26.3 nan 24.4 27.1 24.0 20.5 18.0 17.1 15.4 15.5 15.0 13.9 13.5 14.8 15.0 18.5 19.5 21.0 19.2 18.4 15.7 18.3 17.2
11.3 10.1 11.0 11.6 11.7 12.2 12.7 12.0 12.6 12.9 13.8 16.0 15.2 15.2 8.5 nan nan nan nan 20.2 27.3 25.2 25.4 26.0 23.7 23.0 20.9 21.3 20.0 20.9 18.7 19.0 18.9 22.2 21.9 23.3 21.6 22.1 21.0 16.5 14.3 9.2 10.3
14.4 5.8 11.0 16.3 15.4 14.3 12.1 14.2 13.5 13.9 14.7 16.2 16.3 15.8 20.8 18.2 24.5 25.8 22.8 27.9 27.6 25.9 24.1 25.6 26.1 27.9 27.6 25.7 25.2 23.9 23.7 23.9 22.4 23.4 23.5 22.1 20.6 21.4 16.5 20.3 18.2 16.6 17.2
19.0 17.5 4.2 17.1 19.4 19.7 20.0 17.8 15.2 17.7 16.3 17.8 15.7 15.4 nan 21.1 21.9 23.5 26.2 25.1 27.4 29.2 25.9 27.2 28.2 32.8 32.7 34.7 30.5 29.3 27.9 20.1 23.1 25.1 26.0 25.4 24.6 28.4 19.5 14.5 18.2 19.3 19.2
19.0 19.7 19.8 21.7 17.7 18.1 19.6 16.1 17.1 17.1 16.9 16.0 15.2 15.7 nan 17.5 19.8 20.5 20.8 25.0 27.4 27.2 29.4 32.8 32.1 33.9 31.5 30.0 28.0 26.4 23.2 26.0 27.3 26.6 23.3 23.9 26.6 23.9 23.2 17.7 18.1 16.6 20.1
17.8 16.8 18.1 18.9 18.8 8.4 22.0 23.8 21.2 20.1 18.2 17.9 16.1 15.5 17.3 21.0 18.4 18.0 24.2 26.7 22.8 21.9 23.9 25.1 23.7 23.2 21.7 24.1 21.8 21.2 22.7 24.9 25.4 30.7 23.8 24.5 24.2 26.5 24.1 21.8 19.9 21.4 20.1
19.2 19.5 18.8 20.3 18.3 16.6 18.2 18.8 16.9 6.9 17.1 17.8 25.3 21.5 14.3 17.5 23.3 19.1 19.3 22.0 18.5 27.7 21.3 22.3 19.3 19.1 20.1 27.3 32.4 31.8 33.7 35.0 34.3 32.2 29.6 22.6 22.6 18.8 20.2 21.9 17.9 16.9 15.3
19.1 16.9 16.6 15.6 20.9 17.4 16.6 19.0 13.7 17.7 20.4 16.7 19.7 15.2 16.0 15.5 16.8 21.9 20.6 17.3 19.1 17.7 15.5 15.6 15.7 15.9 16.3 16.8 22.2 27.1 26.3 4.5 18.3 4.9 26.8 20.4 23.5 23.8 23.2 19.9 18.3 16.1 14.1
14.2 14.8 15.3 15.7 15.6 16.7 17.3 17.0 17.4 14.6 17.8 18.8 18.0 18.2 16.1 16.1 15.8 18.3 17.2 17.3 14.4 14.9 15.1 16.0 15.5 13.7 13.0 14.7 15.7 6.8 4.2 3.7 22.5 4.4 23.9 20.1 22.5 21.5 21.5 21.6 20.2 18.7 15.3

GFSGL_prec_sndepth_171.txt.gz
Snowfall_Accumulation
0.0 0.0 0.0 0.0 0.0 0.0 0.0 0.0 0.0 0.0 0.0 0.0 0.0 0.0 0.0 0.0 0.0 0.0 0.0 0.0 0.0 0.0 0.0 0.0 0.0 0.0 0.0 0.0 0.0 0.0 0.0 0.0 0.0 0.0 0.0 0.0 0.0 0.0 0.0 0.0 0.0 0.0 0.0
0.0 0.0 0.0 0.0 0.0 0.0 0.0 0.0 0.0 0.0 0.0 0.0 0.0 0.0 0.0 0.0 0.0 0.0 0.0 0.0 0.0 0.0 0.0 0.0 0.0 0.0 0.0 0.0 0.0 0.0 0.0 0.0 0.0 0.0 0.0 0.2 0.1 0.0 0.0 0.0 0.0 0.0 0.0
0.0 0.0 0.0 0.0 0.0 0.0 0.0 0.0 0.0 0.0 0.0 0.0 0.0 0.0 0.0 0.0 0.0 0.0 0.0 0.0 0.0 0.0 0.0 0.0 0.0 0.0 0.0 0.0 0.0 0.0 0.0 0.0 0.0 0.1 0.2 0.2 0.2 0.1 0.1 0.1 0.0 0.0 0.0
0.0 0.0 0.0 0.0 0.0 0.0 0.0 0.0 0.0 0.0 0.0 0.0 0.0 0.0 0.0 0.0 0.0 0.0 0.0 0.0 0.0 0.0 0.0 0.0 0.0 0.0 0.0 0.0 0.0 0.0 0.0 0.1 0.1 0.2 0.2 0.2 0.3 0.4 0.3 0.5 0.8 0.5 0.5
0.0 0.0 0.0 0.0 0.0 0.0 0.0 0.0 0.0 0.0 0.0 0.0 0.0 0.0 0.0 0.0 0.0 0.0 0.0 0.0 0.0 0.0 0.0 0.0 0.0 0.0 nan nan 0.1 0.0 0.0 0.1 0.3 0.4 0.4 0.4 0.4 0.6 0.8 0.6 1.2 0.9 0.6
0.0 0.0 0.0 0.0 0.0 0.0 0.0 0.0 0.0 0.0 0.0 0.0 0.0 0.0 0.0 0.0 nan nan 0.0 0.0 0.0 0.0 0.0 0.0 0.0 0.0 0.0 nan nan nan nan 0.0 0.1 0.9 0.6 0.4 0.1 0.7 1.1 1.6 2.0 2.9 3.3
0.0 0.0 0.1 0.1 0.1 0.0 0.0 0.0 0.0 0.0 0.1 0.1 0.2 0.1 0.1 0.1 nan nan nan 0.0 0.0 0.0 0.0 0.0 0.0 0.0 0.1 0.0 nan nan nan nan nan 0.0 0.1 0.3 0.7 0.4 0.7 1.6 1.3 2.3 1.7
0.1 0.1 0.2 0.2 0.4 0.6 0.6 0.5 0.4 0.2 0.2 0.2 0.1 0.1 0.0 0.0 nan nan nan 0.0 0.0 0.0 0.0 0.0 0.0 0.0 0.0 0.1 0.1 0.1 0.1 0.1 0.1 0.0 0.1 0.1 0.1 0.1 0.1 0.3 0.6 1.1 1.9
0.5 0.7 0.7 0.6 0.6 0.5 0.6 0.5 0.6 0.5 0.4 0.2 0.1 0.3 0.3 0.2 nan nan 0.0 0.0 0.1 0.1 0.0 0.0 0.0 0.1 nan nan 0.2 0.9 1.4 0.8 nan nan nan nan nan nan nan 2.0 7.7 9.8 6.1
0.7 0.7 0.6 0.6 0.9 0.9 0.8 1.0 1.1 0.8 0.9 1.6 0.6 0.6 0.2 0.5 nan nan nan 1.0 0.7 1.1 0.2 0.1 0.6 0.1 nan nan 0.5 1.5 3.7 1.4 1.2 2.0 1.0 0.2 nan nan nan 0.2 2.0 8.7 6.5
1.8 1.6 1.5 1.4 1.6 1.1 1.1 1.1 1.5 1.7 1.2 1.8 2.0 1.2 1.1 0.4 0.2 nan nan 0.5 1.6 2.8 2.7 2.1 1.2 nan nan nan nan 1.8 2.7 1.2 2.8 2.7 2.6 2.6 2.0 1.6 1.9 1.3 0.6 1.9 6.0
2.1 2.3 2.5 2.5 2.0 1.7 2.8 2.3 3.1 2.7 3.1 3.1 2.9 2.6 2.2 0.8 nan nan nan nan nan 4.5 2.7 2.1 1.6 nan nan nan 1.3 nan nan 1.7 4.7 5.8 6.7 6.3 4.6 3.9 2.6 1.9 0.6 0.7 0.8
4.3 5.4 5.0 4.1 3.3 2.9 3.8 3.4 4.9 3.5 4.8 3.1 3.9 3.7 2.9 2.5 2.0 nan nan nan nan 3.1 2.1 2.1 nan nan nan nan nan nan 1.6 4.7 6.0 10.2 7.9 5.0 3.6 2.8 1.6 2.4 1.5 1.8 1.5
6.7 4.4 3.6 4.1 3.3 3.7 3.9 4.1 5.7 5.4 4.6 4.7 5.7 5.9 4.2 4.3 3.4 2.8 3.6 2.2 2.5 3.7 nan 3.0 nan 3.2 nan nan 3.3 3.7 5.5 6.3 8.0 9.4 8.3 5.0 3.5 4.8 6.4 4.9 7.6 7.0 10.9
6.0 4.4 4.6 5.1 5.3 4.5 3.7 4.7 5.0 3.0 5.9 10.0 10.5 7.1 10.8 11.5 8.3 3.7 7.3 9.5 7.5 7.1 6.2 10.4 9.5 7.1 7.5 7.1 8.6 7.7 6.7 7.6 9.1 8.9 10.1 9.4 9.2 9.1 9.3 7.6 8.5 11.0 14.3
4.5 5.9 4.8 5.0 4.7 4.5 5.4 5.5 nan nan nan nan nan 7.6 8.9 nan nan nan nan nan nan nan 17.9 20.7 13.7 12.3 10.9 11.1 12.4 11.8 10.6 9.1 10.3 11.5 11.8 11.3 12.3 11.4 12.0 12.3 11.7 14.0 16.1
6.9 5.6 6.7 5.6 6.9 7.8 8.4 9.4 10.2 7.8 nan nan nan nan nan nan nan nan nan nan nan nan 28.7 19.3 18.8 14.8 14.6 12.8 13.9 13.2 12.8 11.8 11.0 13.2 13.0 14.1 14.8 15.4 15.5 15.0 13.1 12.6 16.0
8.6 3.1 9.9 9.8 9.6 10.3 10.7 11.2 11.5 12.9 14.2 12.8 nan nan nan nan nan nan nan nan 26.3 nan 24.3 27.1 23.9 20.5 17.9 17.1 15.4 15.5 15.0 13.9 13.5 14.8 15.0 18.5 19.5 21.0 19.1 18.3 15.6 18.3 17.1
11.8 10.8 11.7 12.2 12.2 12.4 12.9 12.0 12.5 12.9 13.8 15.9 15.2 15.2 8.5 nan nan nan nan 20.1 27.2 25.2 25.4 25.9 23.7 22.9 20.8 21.2 20.0 20.8 18.7 19.0 18.8 22.2 21.8 23.3 21.6 22.0 20.9 16.4 14.2 9.1 10.3
14.7 5.9 11.2 16.6 15.6 14.5 12.2 14.1 13.5 13.8 14.7 16.2 16.3 15.8 20.8 18.1 24.4 25.8 22.7 27.9 27.5 25.9 24.1 25.6 26.0 27.8 27.6 25.6 25.2 23.8 23.6 23.9 22.3 23.4 23.4 22.1 20.6 21.4 16.5 20.2 18.2 16.6 17.1
19.0 17.6 4.2 17.1 19.4 19.7 19.9 17.7 15.2 17.7 16.3 17.7 15.7 15.3 nan 21.0 21.8 23.5 26.1 25.1 27.3 29.1 25.9 27.1 28.2 32.7 32.6 34.6 30.4 29.2 27.9 20.0 23.1 25.0 26.0 25.3 24.6 28.3 19.5 14.4 18.2 19.2 19.2
18.9 19.6 19.8 21.7 17.6 18.0 19.6 16.0 17.1 17.1 16.9 16.0 15.1 15.6 nan 17.5 19.8 20.5 20.7 24.9 27.3 27.1 29.3 32.7 32.0 33.8 31.4 29.9 27.9 26.3 23.2 25.9 27.2 26.6 23.3 23.8 26.5 23.9 23.2 17.7 18.1 16.5 20.1
17.7 16.8 18.0 18.9 18.7 8.4 21.9 23.7 21.1 20.0 18.1 17.8 16.1 15.5 17.2 21.0 18.4 18.0 24.1 26.6 22.8 21.9 23.9 25.0 23.6 23.2 21.7 24.0 21.8 21.1 22.7 24.8 25.3 30.7 23.8 24.5 24.1 26.4 24.1 21.8 19.8 21.3 20.1
19.1 19.4 18.7 20.2 18.2 16.5 18.2 18.8 16.9 6.9 17.0 17.8 25.3 21.5 14.2 17.5 23.2 19.1 19.3 21.9 18.5 27.6 21.2 22.2 19.3 19.0 20.1 27.3 32.3 31.8 33.6 34.9 34.2 32.1 29.6 22.6 22.5 18.8 20.2 21.9 17.9 16.9 15.3
19.0 16.8 16.6 15.6 20.9 17.4 16.6 19.0 13.7 17.7 20.3 16.6 19.7 15.2 16.0 15.5 16.8 21.8 20.5 17.3 19.1 17.7 15.5 15.5 15.7 15.9 16.3 16.8 22.2 27.1 26.2 4.5 18.3 4.9 26.8 20.4 23.4 23.7 23.2 19.9 18.3 16.1 14.1
14.1 14.7 15.3 15.6 15.6 16.7 17.3 17.0 17.4 14.5 17.8 18.7 17.9 18.2 16.1 16.1 15.8 18.2 17.2 17.3 14.4 14.9 15.1 16.0 15.5 13.7 13.0 14.7 15.7 6.8 4.2 3.7 22.4 4.4 23.9 20.0 22.5 21.5 21.5 21.6 20.2 18.7 15.3

GFSGL_prec_sndepth_174.txt.gz
Snowfall_Accumulation
0.0 0.0 0.0 0.0 0.0 0.0 0.0 0.0 0.0 0.0 0.0 0.0 0.0 0.0 0.0 0.0 0.0 0.0 0.0 0.0 0.0 0.0 0.0 0.0 0.0 0.0 0.0 0.0 0.0 0.0 0.0 0.0 0.0 0.0 0.0 0.0 0.0 0.0 0.0 0.0 0.0 0.0 0.0
0.0 0.0 0.0 0.0 0.0 0.0 0.0 0.0 0.0 0.0 0.0 0.0 0.0 0.0 0.0 0.0 0.0 0.0 0.0 0.0 0.0 0.0 0.0 0.0 0.0 0.0 0.0 0.0 0.0 0.0 0.0 0.0 0.0 0.0 0.0 0.2 0.1 0.0 0.0 0.0 0.0 0.0 0.0
0.0 0.0 0.0 0.0 0.0 0.0 0.0 0.0 0.0 0.0 0.0 0.0 0.0 0.0 0.0 0.0 0.0 0.0 0.0 0.0 0.0 0.0 0.0 0.0 0.0 0.0 0.0 0.0 0.0 0.0 0.0 0.0 0.0 0.1 0.2 0.2 0.2 0.1 0.1 0.1 0.0 0.0 0.0
0.0 0.0 0.0 0.0 0.0 0.0 0.0 0.0 0.0 0.0 0.0 0.0 0.0 0.0 0.0 0.0 0.0 0.0 0.0 0.0 0.0 0.0 0.0 0.0 0.0 0.0 0.0 0.0 0.0 0.0 0.0 0.1 0.1 0.2 0.2 0.2 0.2 0.4 0.3 0.4 0.8 0.5 0.5
0.0 0.0 0.0 0.0 0.0 0.0 0.0 0.0 0.0 0.0 0.0 0.0 0.0 0.0 0.0 0.0 0.0 0.0 0.0 0.0 0.0 0.0 0.0 0.0 0.0 0.0 nan nan 0.1 0.0 0.0 0.1 0.3 0.4 0.4 0.4 0.3 0.6 0.7 0.6 1.2 0.9 0.6
0.0 0.0 0.0 0.0 0.0 0.0 0.0 0.0 0.0 0.0 0.0 0.0 0.0 0.0 0.0 0.0 nan nan 0.0 0.0 0.0 0.0 0.0 0.0 0.0 0.0 0.0 nan nan nan nan 0.0 0.1 0.8 0.5 0.4 0.1 0.7 1.0 1.5 1.9 2.9 3.3
0.0 0.0 0.0 0.0 0.1 0.0 0.0 0.0 0.0 0.0 0.1 0.1 0.1 0.1 0.1 0.0 nan nan nan 0.0 0.0 0.0 0.0 0.0 0.0 0.0 0.1 0.0 nan nan nan nan nan 0.0 0.1 0.3 0.7 0.3 0.7 1.5 1.2 2.3 1.7
0.1 0.1 0.1 0.2 0.4 0.5 0.5 0.4 0.3 0.2 0.2 0.2 0.1 0.0 0.0 0.0 nan nan nan 0.0 0.0 0.0 0.0 0.0 0.0 0.0 0.0 0.1 0.1 0.1 0.1 0.1 0.1 0.0 0.1 0.1 0.1 0.1 0.1 0.3 0.6 1.0 1.9
0.4 0.6 0.6 0.5 0.6 0.5 0.6 0.5 0.5 0.5 0.3 0.2 0.1 0.3 0.2 0.1 nan nan 0.0 0.0 0.1 0.1 0.0 0.0 0.0 0.1 nan nan 0.2 0.9 1.4 0.8 nan nan nan nan nan nan nan 2.0 7.7 9.7 6.1
0.6 0.7 0.6 0.5 0.9 0.8 0.8 1.0 1.0 0.8 0.9 1.6 0.6 0.6 0.1 0.5 nan nan nan 1.0 0.6 1.1 0.2 0.1 0.6 0.1 nan nan 0.5 1.5 3.7 1.4 1.1 2.0 1.0 0.2 nan nan nan 0.2 2.0 8.6 6.5
1.8 1.5 1.5 1.3 1.6 1.0 1.1 1.0 1.5 1.7 1.2 1.8 2.0 1.2 1.1 0.4 0.2 nan nan 0.5 1.6 2.7 2.7 2.1 1.2 nan nan nan nan 1.8 2.6 1.2 2.8 2.7 2.6 2.6 2.0 1.6 1.9 1.3 0.6 1.9 6.0
2.0 2.3 2.5 2.5 2.0 1.7 2.8 2.3 3.1 2.7 3.1 3.1 2.9 2.7 2.2 0.8 nan nan nan nan nan 4.4 2.7 2.0 1.6 nan nan nan 1.3 nan nan 1.7 4.7 5.7 6.7 6.3 4.6 3.9 2.6 1.8 0.6 0.7 0.8
4.3 5.4 5.0 4.1 3.3 2.9 3.8 3.4 4.9 3.5 4.9 3.3 4.0 3.8 2.9 2.5 2.0 nan nan nan nan 3.1 2.1 2.1 nan nan nan nan nan nan 1.6 4.7 6.0 10.2 7.8 5.0 3.6 2.8 1.6 2.3 1.4 1.8 1.5
6.7 4.4 3.6 4.1 3.3 3.7 3.9 4.1 5.8 5.6 5.0 5.0 5.8 5.9 4.2 4.3 3.4 2.8 3.6 2.2 2.5 3.7 nan 3.0 nan 3.2 nan nan 3.3 3.6 5.5 6.2 8.0 9.3 8.3 5.0 3.4 4.8 6.4 4.9 7.5 6.9 10.9
5.9 4.3 4.6 5.1 5.3 4.4 3.7 4.8 5.3 3.3 6.1 10.1 10.7 7.3 10.8 11.4 8.3 3.7 7.3 9.4 7.5 7.1 6.1 10.4 9.5 7.0 7.4 7.1 8.6 7.6 6.7 7.5 9.1 8.8 10.0 9.3 9.1 9.1 9.3 7.5 8.5 10.9 14.2
4.5 5.9 4.8 4.9 4.6 4.5 5.5 6.0 nan nan nan nan nan 7.7 8.8 nan nan nan nan nan nan nan 17.8 20.6 13.6 12.2 10.8 11.0 12.4 11.7 10.5 9.0 10.3 11.4 11.8 11.3 12.3 11.4 12.0 12.3 11.7 14.0 16.0
6.9 5.6 6.6 5.6 6.9 8.0 8.8 10.1 11.0 8.8 nan nan nan nan nan nan nan nan nan nan nan nan 28.5 19.2 18.7 14.7 14.5 12.7 13.8 13.1 12.7 11.7 11.0 13.1 12.9 14.1 14.8 15.4 15.5 15.0 13.1 12.5 16.0
8.6 3.1 9.9 10.0 10.0 11.0 11.4 12.0 12.2 13.2 14.5 12.9 nan nan nan nan nan nan nan nan 26.3 nan 24.2 26.9 23.7 20.3 17.8 17.0 15.3 15.4 14.9 13.9 13.4 14.7 14.9 18.4 19.4 20.9 19.1 18.3 15.6 18.3 17.1
11.8 10.9 11.8 12.5 12.7 12.9 13.5 12.6 12.9 13.1 13.9 15.9 15.1 15.1 8.5 nan nan nan nan 20.0 27.0 25.0 25.2 25.8 23.5 22.8 20.7 21.1 19.8 20.7 18.6 18.9 18.7 22.1 21.7 23.2 21.5 22.0 20.8 16.4 14.2 9.1 10.3
15.0 6.0 11.3 16.7 15.8 14.7 12.5 14.3 13.6 13.9 14.6 16.1 16.2 15.7 20.7 18.0 24.2 25.6 22.6 27.7 27.4 25.7 23.9 25.4 25.8 27.6 27.4 25.5 25.0 23.7 23.5 23.8 22.2 23.3 23.3 22.0 20.5 21.3 16.4 20.2 18.1 16.5 17.1
19.0 17.6 4.2 17.1 19.4 19.6 19.8 17.6 15.1 17.5 16.2 17.6 15.6 15.2 nan 20.9 21.6 23.3 25.9 24.9 27.1 28.9 25.7 27.0 28.0 32.5 32.4 34.4 30.3 29.0 27.7 19.9 23.0 24.9 25.8 25.2 24.5 28.2 19.4 14.4 18.2 19.2 19.1
18.8 19.5 19.7 21.6 17.6 18.0 19.4 15.9 16.9 17.0 16.8 15.9 15.1 15.5 nan 17.4 19.6 20.3 20.6 24.7 27.1 27.0 29.1 32.5 31.8 33.6 31.3 29.8 27.8 26.2 23.1 25.8 27.1 26.4 23.1 23.7 26.4 23.8 23.1 17.7 18.0 16.5 20.0
17.6 16.7 18.0 18.8 18.6 8.3 21.8 23.5 21.0 19.9 18.0 17.7 16.0 15.4 17.2 20.8 18.3 17.9 24.0 26.4 22.6 21.7 23.8 24.9 23.5 23.1 21.6 23.9 21.7 21.0 22.6 24.7 25.2 30.5 23.7 24.4 24.0 26.3 24.0 21.7 19.8 21.3 20.1
19.0 19.3 18.7 20.1 18.1 16.4 18.1 18.7 16.8 6.9 16.9 17.7 25.1 21.3 14.1 17.4 23.1 19.0 19.2 21.8 18.4 27.5 21.1 22.1 19.2 18.9 20.0 27.1 32.2 31.6 33.5 34.7 34.1 32.0 29.5 22.5 22.4 18.7 20.1 21.8 17.9 16.9 15.2
19.0 16.8 16.5 15.5 20.8 17.3 16.5 18.9 13.6 17.6 20.2 16.5 19.5 15.1 15.9 15.4 16.7 21.7 20.4 17.2 19.0 17.6 15.4 15.5 15.6 15.9 16.3 16.8 22.1 27.0 26.1 4.5 18.3 4.9 26.7 20.3 23.3 23.7 23.1 19.8 18.2 16.1 14.1
14.1 14.7 15.2 15.6 15.5 16.6 17.2 16.9 17.3 14.5 17.7 18.6 17.8 18.1 16.0 16.0 15.7 18.1 17.1 17.2 14.4 14.8 15.0 15.9 15.4 13.7 13.0 14.7 15.7 6.8 4.2 3.7 22.3 4.4 23.8 20.0 22.4 21.4 21.4 21.5 20.1 18.6 15.3